Overview Statistics Trail Chart Weather Telemetry Raw packets
 

This is the latest recevied weather packets stored in our database for station/object KB1YTR-1. If no packets are shown the sender has not sent any weather packets the latest 10 day(s).

<< 36 37 38 39 40 41 42 >>
Time Temp. Humidity Pressure Rain* Wind** Luminosity Snow
1787942565 19.44° C 67% 1019.3 hPa 0 mm - - -
1787941840 19.44° C 69% 1019.8 hPa 0 mm - - -
1787940975 19.44° C 69% 1019.8 hPa 0 mm - - -
1787940135 18.89° C 73% 1019.9 hPa 0 mm - - -
1787939391 18.89° C 74% 1020.1 hPa 0 mm - - -
1787938630 19.44° C 75% 1020.2 hPa 0 mm - - -
1787937850 18.89° C 75% 1020.2 hPa 0 mm - - -
1787936960 18.89° C 81% 1020.3 hPa 0 mm - - -
1787936241 18.33° C 81% 1020.3 hPa 0 mm - - -
1787935450 17.22° C 85% 1020.3 hPa 0 mm - - -
1787934615 17.78° C 84% 1020.5 hPa 0 mm - - -
1787933880 17.78° C 83% 1020.3 hPa 0 mm - - -
1787933135 18.89° C 82% 1020.2 hPa 0 mm - - -
1787932330 17.78° C 85% 1020.2 hPa 0 mm - - -
1787931440 17.22° C 86% 1020.5 hPa 0 mm - - -
1787930555 17.78° C 85% 1020.3 hPa 0 mm - - -
1787929685 17.78° C 86% 1020.4 hPa 0 mm - - -
1787928909 16.67° C 87% 1020.7 hPa 0 mm - - -
1787928060 16.67° C 87% 1020.6 hPa 0 mm - - -
1787927175 17.22° C 85% 1020.4 hPa 0 mm - - -
1787926276 16.67° C 84% 1020.3 hPa 0 mm - - -
1787925547 16.11° C 85% 1020.5 hPa 0 mm - - -
1787924655 15° C 89% 1020.4 hPa 0 mm - - -
1787923865 15.56° C 89% 1020.5 hPa 0 mm - - -
1787922986 14.44° C 91% 1020.3 hPa 0 mm - - -

* Rain latest hour (hover to see other rain measurements)
** Current wind speed in m/s (hover to see current wind gust speed)